| time (UTC) | temp F | wind direction | speed MPH | gust MPH | rain 1hr in | rain 24hr in | rain mn in | humidity % | barometer mb |
| 20260508073034 | 62 | 54 | 0.0 | 2.0 | 0.00 | 0.00 | 0.00 | 66 | 1014.1 |
| 20260508071536 | 62 | 54 | 1.0 | 4.0 | 0.00 | 0.00 | 0.00 | 67 | 1013.8 |
| 20260508070030 | 62 | 45 | 1.0 | 4.0 | 0.00 | 0.00 | 0.00 | 67 | 1014.0 |
| 20260508064530 | 62 | 42 | 0.0 | 3.0 | 0.00 | 0.00 | 0.00 | 67 | 1014.5 |
| 20260508063026 | 62 | 30 | 0.0 | 4.0 | 0.00 | 0.00 | 0.00 | 67 | 1014.8 |
| 20260508061525 | 62 | 32 | 0.0 | 3.0 | 0.00 | 0.00 | 0.00 | 67 | 1014.9 |
| 20260508060028 | 62 | 27 | 0.0 | 5.0 | 0.00 | 0.00 | 0.00 | 67 | 1014.9 |
| 20260508054602 | 62 | 46 | 1.0 | 3.0 | 0.00 | 0.00 | 0.00 | 67 | 1014.7 |
| 20260508053030 | 62 | 46 | 0.0 | 0.0 | 0.00 | 0.00 | 0.00 | 67 | 1015.1 |
| 20260508051521 | 62 | 46 | 0.0 | 2.0 | 0.00 | 0.00 | 0.00 | 68 | 1014.7 |
| 20260508050017 | 62 | 47 | 1.0 | 3.0 | 0.00 | 0.00 | 0.00 | 68 | 1014.7 |
| 20260508044517 | 62 | 34 | 0.0 | 3.0 | 0.00 | 0.00 | 0.00 | 68 | 1015.3 |
| 20260508043016 | 62 | 55 | 0.0 | 4.0 | 0.00 | 0.00 | 0.00 | 69 | 1014.3 |
| 20260508041516 | 62 | 56 | 0.0 | 1.0 | 0.00 | 0.00 | 0.00 | 69 | 1014.7 |
| 20260508040016 | 63 | 56 | 0.0 | 0.0 | 0.00 | 0.00 | 0.00 | 69 | 1015.0 |
| 20260508034519 | 63 | 56 | 1.0 | 4.0 | 0.00 | 0.00 | 0.00 | 69 | 1015.0 |
| 20260508033024 | 63 | 65 | 0.0 | 2.0 | 0.00 | 0.00 | 0.00 | 69 | 1015.7 |
| 20260508031515 | 63 | 65 | 0.0 | 0.0 | 0.00 | 0.00 | 0.00 | 69 | 1015.7 |
| 20260508030014 | 63 | 65 | 0.0 | 2.0 | 0.00 | 0.00 | 0.00 | 69 | 1015.4 |
| 20260508024513 | 63 | 94 | 1.0 | 3.0 | 0.00 | 0.00 | 0.00 | 69 | 1014.9 |
| 20260508023012 | 63 | 118 | 0.0 | 4.0 | 0.00 | 0.00 | 0.00 | 69 | 1014.3 |
| 20260508021512 | 64 | 78 | 3.0 | 8.0 | 0.00 | 0.00 | 0.00 | 69 | 1013.5 |
| 20260508020011 | 64 | 57 | 1.0 | 5.0 | 0.00 | 0.00 | 0.00 | 69 | 1013.4 |
| 20260508014509 | 64 | 82 | 2.0 | 7.0 | 0.00 | 0.00 | 0.00 | 68 | 1013.1 |
| 20260508013010 | 65 | 80 | 1.0 | 8.0 | 0.00 | 0.00 | 0.00 | 67 | 1013.7 |
| 20260508011510 | 65 | 51 | 2.0 | 10.0 | 0.00 | 0.00 | 0.00 | 65 | 1014.2 |
| 20260508010025 | 65 | 57 | 3.0 | 9.0 | 0.00 | 0.00 | 0.00 | 66 | 1013.3 |
| 20260508004514 | 66 | 91 | 2.0 | 9.0 | 0.00 | 0.00 | 0.00 | 64 | 1013.3 |
| 20260508003105 | 66 | 115 | 2.0 | 8.0 | 0.00 | 0.00 | 0.00 | 63 | 1014.0 |
| 20260508001506 | 67 | 112 | 2.0 | 6.0 | 0.00 | 0.00 | 0.00 | 62 | 1014.4 |
| 20260508000004 | 67 | 90 | 2.0 | 5.0 | 0.00 | 0.00 | 0.00 | 65 | 1014.7 |
| 20260507234503 | 67 | 55 | 1.0 | 8.0 | 0.00 | 0.00 | 0.00 | 64 | 1014.9 |
| 20260507233002 | 68 | 60 | 4.0 | 9.0 | 0.00 | 0.00 | 0.00 | 63 | 1015.0 |
| 20260507231501 | 67 | 35 | 3.0 | 6.0 | 0.00 | 0.00 | 0.00 | 63 | 1014.9 |
| 20260507230000 | 68 | 23 | 2.0 | 8.0 | 0.00 | 0.00 | 0.00 | 62 | 1015.1 |
| 20260507224601 | 67 | 23 | 4.0 | 7.0 | 0.00 | 0.00 | 0.00 | 63 | 1015.2 |
| 20260507223058 | 67 | 33 | 3.0 | 8.0 | 0.00 | 0.00 | 0.00 | 64 | 1015.5 |
| 20260507221558 | 67 | 42 | 3.0 | 8.0 | 0.00 | 0.00 | 0.00 | 63 | 1015.5 |
| 20260507220057 | 67 | 35 | 2.0 | 9.0 | 0.00 | 0.00 | 0.00 | 63 | 1015.5 |
| 20260507214556 | 67 | 43 | 2.0 | 6.0 | 0.00 | 0.00 | 0.00 | 64 | 1015.5 |
| 20260507213056 | 67 | 5 | 6.0 | 11.0 | 0.00 | 0.00 | 0.00 | 63 | 1015.6 |
| 20260507211556 | 66 | 19 | 3.0 | 8.0 | 0.00 | 0.00 | 0.00 | 65 | 1015.5 |
| 20260507204553 | 66 | 26 | 7.0 | 15.0 | 0.00 | 0.00 | 0.00 | 64 | 1015.2 |
| 20260507203057 | 66 | 61 | 6.0 | 14.0 | 0.00 | 0.00 | 0.00 | 65 | 1015.8 |
| 20260507201550 | 67 | 43 | 3.0 | 12.0 | 0.00 | 0.00 | 0.00 | 65 | 1016.3 |
| 20260507200050 | 67 | 41 | 5.0 | 13.0 | 0.00 | 0.00 | 0.00 | 66 | 1016.0 |
| 20260507194549 | 65 | 112 | 6.0 | 14.0 | 0.00 | 0.00 | 0.00 | 68 | 1016.2 |
| 20260507193044 | 65 | 38 | 3.0 | 13.0 | 0.00 | 0.00 | 0.00 | 68 | 1016.6 |
| 20260507191541 | 64 | 41 | 5.0 | 11.0 | 0.00 | 0.00 | 0.00 | 69 | 1016.6 |
| 20260507190041 | 64 | 40 | 2.0 | 9.0 | 0.00 | 0.00 | 0.00 | 69 | 1016.8 |
| 20260507184540 | 65 | 74 | 3.0 | 9.0 | 0.00 | 0.00 | 0.00 | 68 | 1017.1 |
| 20260507183046 | 64 | 84 | 3.0 | 9.0 | 0.00 | 0.00 | 0.00 | 69 | 1017.4 |
| 20260507181541 | 64 | 15 | 4.0 | 12.0 | 0.00 | 0.00 | 0.00 | 69 | 1017.4 |
| 20260507180035 | 63 | 95 | 2.0 | 8.0 | 0.00 | 0.00 | 0.00 | 68 | 1017.1 |
| 20260507174532 | 62 | 57 | 2.0 | 12.0 | 0.00 | 0.00 | 0.00 | 68 | 1017.0 |
| 20260507173031 | 61 | 16 | 5.0 | 11.0 | 0.00 | 0.00 | 0.00 | 67 | 1017.1 |
| 20260507171530 | 61 | 40 | 5.0 | 10.0 | 0.00 | 0.00 | 0.00 | 66 | 1017.3 |
| 20260507170029 | 60 | 59 | 4.0 | 9.0 | 0.00 | 0.00 | 0.00 | 64 | 1017.9 |
| 20260507164529 | 60 | 54 | 4.0 | 10.0 | 0.00 | 0.00 | 0.00 | 61 | 1017.7 |
| 20260507163027 | 60 | 50 | 3.0 | 13.0 | 0.00 | 0.00 | 0.00 | 58 | 1018.1 |
| 20260507161539 | 60 | 62 | 5.0 | 14.0 | 0.00 | 0.00 | 0.00 | 57 | 1017.8 |
| 20260507160040 | 60 | 38 | 5.0 | 12.0 | 0.00 | 0.00 | 0.00 | 55 | 1018.2 |
| 20260507154526 | 60 | 38 | 5.0 | 12.0 | 0.00 | 0.00 | 0.00 | 52 | 1018.1 |
| 20260507153023 | 60 | 88 | 1.0 | 10.0 | 0.00 | 0.00 | 0.00 | 49 | 1018.1 |
| 20260507151523 | 59 | 28 | 6.0 | 14.0 | 0.00 | 0.00 | 0.00 | 49 | 1018.3 |
| 20260507150026 | 60 | 24 | 2.0 | 9.0 | 0.00 | 0.00 | 0.00 | 46 | 1018.0 |
| 20260507144528 | 60 | 28 | 2.0 | 11.0 | 0.00 | 0.00 | 0.00 | 45 | 1017.9 |
| 20260507143020 | 60 | 27 | 2.0 | 12.0 | 0.00 | 0.00 | 0.00 | 44 | 1018.0 |
| 20260507141521 | 60 | 41 | 1.0 | 14.0 | 0.00 | 0.00 | 0.00 | 42 | 1018.5 |
| 20260507140017 | 59 | 355 | 5.0 | 14.0 | 0.00 | 0.00 | 0.00 | 42 | 1017.6 |
| 20260507134515 | 59 | 46 | 2.0 | 9.0 | 0.00 | 0.00 | 0.00 | 39 | 1017.6 |
| 20260507133013 | 0 | 0.0 | 0.0 | 0.00 | 0.00 | 0.00 | 1017.4 | ||
| 20260507131505 | 0 | 0.0 | 0.0 | 0.00 | 0.00 | 0.00 | 1017.0 | ||
| 20260507130001 | 0 | 0.0 | 0.0 | 0.00 | 0.00 | 0.00 | 1017.1 | ||
| 20260507124634 | 0 | 0.0 | 0.0 | 0.00 | 0.00 | 0.00 | 1017.2 | ||
| 20260507123054 | 0 | 0.0 | 0.0 | 0.00 | 0.00 | 0.00 | 1017.1 | ||
| 20260507121548 | 0 | 0.0 | 0.0 | 0.00 | 0.00 | 0.00 | 1017.0 | ||
| 20260507120144 | 0 | 0.0 | 0.0 | 0.00 | 0.00 | 0.00 | 1016.5 | ||
| 20260507114603 | 0 | 0.0 | 0.0 | 0.00 | 0.00 | 0.00 | 1016.2 | ||
| 20260507113039 | 59 | 84 | 5.0 | 12.0 | 0.00 | 0.00 | 0.00 | 43 | 1016.4 |
| 20260507111536 | 59 | 43 | 5.0 | 11.0 | 0.00 | 0.00 | 0.00 | 44 | 1016.3 |
| 20260507110042 | 59 | 46 | 2.0 | 11.0 | 0.00 | 0.00 | 0.00 | 44 | 1016.1 |
| 20260507104531 | 60 | 59 | 4.0 | 13.0 | 0.00 | 0.00 | 0.00 | 45 | 1016.0 |
| 20260507103029 | 60 | 24 | 2.0 | 11.0 | 0.00 | 0.00 | 0.00 | 46 | 1016.0 |
| 20260507101527 | 60 | 65 | 4.0 | 11.0 | 0.00 | 0.00 | 0.00 | 48 | 1015.5 |
| 20260507100025 | 60 | 28 | 1.0 | 11.0 | 0.00 | 0.00 | 0.00 | 51 | 1015.6 |
| 20260507094520 | 60 | 40 | 2.0 | 9.0 | 0.00 | 0.00 | 0.00 | 52 | 1015.6 |
| 20260507093025 | 61 | 360 | 1.0 | 8.0 | 0.00 | 0.00 | 0.00 | 54 | 1015.2 |
| 20260507091526 | 61 | 51 | 2.0 | 8.0 | 0.00 | 0.00 | 0.00 | 55 | 1015.1 |
| 20260507090015 | 61 | 24 | 2.0 | 8.0 | 0.00 | 0.00 | 0.00 | 55 | 1015.1 |
| 20260507084519 | 61 | 34 | 0.0 | 6.0 | 0.00 | 0.00 | 0.00 | 56 | 1015.1 |
| 20260507083013 | 61 | 40 | 2.0 | 5.0 | 0.00 | 0.00 | 0.00 | 57 | 1015.1 |
| 20260507081512 | 61 | 37 | 2.0 | 5.0 | 0.00 | 0.00 | 0.00 | 58 | 1015.1 |
| 20260507080011 | 61 | 85 | 4.0 | 7.0 | 0.00 | 0.00 | 0.00 | 59 | 1014.6 |
| 20260507074509 | 61 | 24 | 2.0 | 9.0 | 0.00 | 0.00 | 0.00 | 61 | 1014.8 |